• Join FlightAware (Why Join?)
  • Login
  • US Flag 
01:06PM EST


 

Airport Tracker/Info


-or-


 

Live Flight TrackerFlight Track Log ✈ SWA1969 ✈ 19-Apr-2013 ✈ KMDW - KPHX

Flight Track Log - Related Links

Times and Time Zones

All times are in EDT time to prevent confusion due to time zone crossing. See the SWA1969 flight status page for this flight to view local times or setup timezone preferences in your user account.

Time Position Orientation Groundspeed Altitude Reporting Facility
EDT Latitude Longitude Course Direction KTS MPH feet Rate Location/Type
01:28PM 41.7667 -87.8000 285° West 161 185 2,600  Level Chicago TRACON
01:29PM 41.7333 -87.8667 236° Southwest 203 234 5,200 2,460 Climbing Chicago TRACON
01:29PM 41.7378 -87.8917 283° West 196 226 6,000 2,760 Climbing Chicago Center
01:30PM 41.7356 -87.9786 268° West 234 269 9,100 2,400 Climbing Chicago Center
01:31PM 41.7333 -88.0706 268° West 249 287 11,000 1,860 Climbing Chicago Center
01:32PM 41.7289 -88.1867 267° West 311 358 13,000 2,220 Climbing Chicago Center
01:33PM 41.9033 -88.4996 285° West  Level FlightAware Approximate
01:33PM 41.7281 -88.3344 270° West 330 380 15,700  Level Chicago Center
01:34PM 41.7075 -88.4581 257° West 341 392 18,400 2,220 Climbing Chicago Center
01:35PM 41.6856 -88.5867 257° West 354 407 20,300 1,800 Climbing Chicago Center
01:36PM 41.6628 -88.7211 257° West 370 426 22,200 1,740 Climbing Chicago Center
01:37PM 41.6397 -88.8581 257° West 379 436 24,000 1,620 Climbing Chicago Center
01:38PM 41.6100 -89.0283 257° West 391 450 25,600 1,440 Climbing Chicago Center
01:39PM 41.5847 -89.1756 257° West 406 467 27,000 1,380 Climbing Chicago Center
01:40PM 41.5592 -89.3261 257° West 415 478 28,500 1,500 Climbing Chicago Center
01:41PM 41.5317 -89.4814 257° West 412 474 30,100 1,260 Climbing Chicago Center
01:42PM 41.5050 -89.6292 256° West 412 474 31,200 1,020 Climbing Chicago Center
01:43PM 41.4794 -89.7797 257° West 416 479 32,300 1,140 Climbing Chicago Center
01:44PM 41.4525 -89.9286 256° West 415 478 33,600 1,200 Climbing Chicago Center
01:45PM 41.4200 -90.1039 256° West 407 468 34,900 960 Climbing Chicago Center
01:47PM 41.3939 -90.2497 257° West 407 468 35,600 480 Climbing Chicago Center
01:48PM 41.3675 -90.3956 256° West 406 467 36,000 180 Climbing Chicago Center
01:49PM 41.3403 -90.5414 256° West 408 470 36,000  Level Chicago Center
01:50PM 41.3072 -90.6900 254° West 419 482 36,000  Level Chicago Center
01:51PM 41.2647 -90.8292 248° West 409 471 36,000  Level Chicago Center
01:52PM 41.2161 -90.9956 249° West 405 466 36,000  Level Chicago Center
01:53PM 41.1817 -91.1378 252° West 407 468 36,000  Level Chicago Center
01:54PM 41.1469 -91.2792 252° West 405 466 36,000  Level Chicago Center
01:56PM 41.0772 -91.5628 252° West 406 467 36,000  Level Chicago Center
01:57PM 41.0394 -91.7128 252° West 403 464 36,000  Level Chicago Center
01:58PM 41.0039 -91.8531 251° West 406 467 36,000  Level Chicago Center
01:59PM 40.9689 -91.9944 252° West 408 470 36,000  Level Chicago Center
02:00PM 40.9253 -92.1639 251° West 409 471 36,000  Level Chicago Center
02:01PM 40.8900 -92.3072 252° West 412 474 36,000  Level Chicago Center
02:02PM 40.8528 -92.4506 251° West 415 478 36,000  Level Chicago Center
02:03PM 40.8153 -92.5969 251° West 424 488 36,000  Level Chicago Center
02:04PM 40.7772 -92.7414 251° West 423 487 36,000  Level Chicago Center
02:05PM 40.7394 -92.8872 251° West 424 488 36,000  Level Minneapolis Center
02:06PM 40.6944 -93.0589 251° West 421 484 36,000  Level Minneapolis Center
02:08PM 40.6206 -93.3397 251° West 412 474 36,000  Level Kansas City Center
02:09PM 40.5731 -93.5078 250° West 412 474 36,000  Level Minneapolis Center
02:10PM 40.5353 -93.6483 251° West 410 472 36,000  Level Minneapolis Center
02:11PM 40.4917 -93.8153 251° West 409 471 36,000  Level Minneapolis Center
02:12PM 40.4519 -93.9536 249° West 408 470 36,000  Level Minneapolis Center
02:14PM 40.4147 -94.0911 250° West 405 466 36,000  Level Minneapolis Center
02:15PM 40.3781 -94.2264 250° West 399 459 36,000  Level Minneapolis Center
02:15PM 40.3497 -94.3347 251° West 399 459 36,000  Level Kansas City Center
02:16PM 40.3094 -94.4808 250° West 399 459 36,000  Level Kansas City Center
02:17PM 40.2664 -94.6322 250° West 399 459 36,000  Level Kansas City Center
02:19PM 40.2292 -94.7619 249° West 398 458 36,000  Level Kansas City Center
02:20PM 40.1869 -94.9147 250° West 401 461 36,000  Level Kansas City Center
02:21PM 40.1492 -95.0486 250° West 408 470 36,000  Level Kansas City Center
02:22PM 40.1047 -95.2025 249° West 408 470 36,000  Level Kansas City Center
02:23PM 40.0669 -95.3347 250° West 407 468 36,000  Level Kansas City Center
02:24PM 40.0228 -95.4894 250° West 409 471 36,000  Level Kansas City Center
02:25PM 39.9831 -95.6233 249° West 413 475 36,000  Level Kansas City Center
02:26PM 39.9381 -95.7783 249° West 411 473 36,000  Level Kansas City Center
02:27PM 39.8972 -95.9169 249° West 422 486 36,000  Level Kansas City Center
02:28PM 39.8508 -96.0744 249° West 421 484 36,000  Level Kansas City Center
02:29PM 39.8056 -96.2286 249° West 426 490 36,000  Level Kansas City Center
02:30PM 39.7614 -96.3719 248° West 427 491 36,000  Level Kansas City Center
02:31PM 39.7206 -96.5100 249° West 429 494 36,000  Level Kansas City Center
02:32PM 39.6722 -96.6689 248° West 424 488 36,000  Level Kansas City Center
02:33PM 39.6311 -96.8014 248° West 417 480 36,000  Level Kansas City Center
02:34PM 39.5894 -96.9358 248° West 416 479 36,000  Level Kansas City Center
02:35PM 39.5394 -97.1008 249° West 413 475 36,000  Level Kansas City Center
02:36PM 39.4967 -97.2439 249° West 414 476 36,000  Level Kansas City Center
02:37PM 39.4550 -97.3758 248° West 415 478 36,000  Level Kansas City Center
02:38PM 39.4078 -97.5300 248° West 415 478 36,000  Level Kansas City Center
02:39PM 39.3672 -97.6611 248° West 414 476 36,000  Level Kansas City Center
02:40PM 39.3244 -97.8008 248° West 417 480 36,000  Level Kansas City Center
02:41PM 39.2742 -97.9494 246° West 415 478 36,000  Level Kansas City Center
02:42PM 39.2267 -98.1014 248° West 411 473 36,000  Level Kansas City Center
02:43PM 39.1867 -98.2286 248° West 409 471 36,000  Level Kansas City Center
02:44PM 39.1444 -98.3619 248° West 405 466 36,000  Level Kansas City Center
02:45PM 39.1014 -98.4936 247° West 403 464 36,000  Level Kansas City Center
02:46PM 39.0586 -98.6261 247° West 402 463 36,000  Level Kansas City Center
02:48PM 39.0053 -98.7897 247° West 411 473 36,000  Level Kansas City Center
02:48PM 38.9744 -98.8853 247° West 415 478 36,000  Level Denver Center
02:49PM 38.9272 -99.0303 247° West 413 475 36,000  Level Denver Center
02:50PM 38.8761 -99.1836 247° West 419 482 36,000  Level Denver Center
02:51PM 38.8322 -99.3156 247° West 422 486 36,000  Level Denver Center
02:52PM 38.8244 -99.3378 246° West 422 486 36,000  Level Kansas City Center
02:53PM 38.7692 -99.5028 247° West 422 486 36,000  Level Kansas City Center
02:53PM 38.7372 -99.6025 248° West 425 489 36,000  Level Denver Center
02:54PM 38.6847 -99.7575 247° West 425 489 36,000  Level Denver Center
02:55PM 38.6400 -99.8881 246° West 421 484 36,000  Level Denver Center
02:57PM 38.5878 -100.0400 246° West 420 483 36,000  Level Denver Center
02:58PM 38.5439 -100.1692 247° West 416 479 36,000  Level Denver Center
02:59PM 38.4997 -100.2983 246° West 416 479 36,000  Level Denver Center
03:00PM 38.4475 -100.4469 246° West 412 474 36,000  Level Denver Center
03:01PM 38.3958 -100.5967 246° West 416 479 36,000  Level Denver Center
03:02PM 38.3511 -100.7236 246° West 412 474 36,000  Level Denver Center
03:03PM 38.2983 -100.8739 246° West 416 479 36,000  Level Denver Center
03:04PM 38.2542 -101.0003 246° West 414 476 36,000  Level Denver Center
03:05PM 38.2014 -101.1492 246° West 415 478 36,000  Level Denver Center
03:06PM 38.1567 -101.2761 246° West 414 476 36,000  Level Denver Center
03:07PM 38.1111 -101.4031 246° West 414 476 36,000  Level Denver Center
03:08PM 38.0586 -101.5511 246° West 414 476 36,000  Level Denver Center
03:09PM 38.0131 -101.6778 245° Southwest 415 478 36,000  Level Denver Center
03:10PM 37.9600 -101.8256 246° West 414 476 36,000  Level Denver Center
03:11PM 37.9122 -101.9533 245° Southwest 417 480 36,000  Level Denver Center
03:12PM 37.8581 -102.1036 246° West 421 484 36,000  Level Denver Center
03:13PM 37.8119 -102.2303 245° Southwest 417 480 36,000  Level Denver Center
03:14PM 37.7567 -102.3775 245° Southwest 415 478 36,000  Level Denver Center
03:15PM 37.7069 -102.5114 245° Southwest 416 479 36,000  Level Denver Center
03:16PM 37.6617 -102.6375 246° West 414 476 36,000  Level Denver Center
03:17PM 37.6067 -102.7833 245° Southwest 411 473 36,000  Level Denver Center
03:18PM 37.5603 -102.9081 245° Southwest 411 473 36,000  Level Denver Center
03:19PM 37.5044 -103.0550 244° Southwest 415 478 36,000  Level Denver Center
03:20PM 37.4575 -103.1808 245° Southwest 414 476 36,000  Level Denver Center
03:21PM 37.4017 -103.3272 244° Southwest 415 478 36,000  Level Denver Center
03:22PM 37.3533 -103.4536 244° Southwest 418 481 36,000  Level Denver Center
03:23PM 37.3381 -103.4967 246° West 416 479 36,000  Level Albuquerque Center
03:24PM 37.2803 -103.6447 244° Southwest 419 482 36,000  Level Albuquerque Center
03:24PM 37.2472 -103.7267 243° Southwest 417 480 36,000  Level Denver Center
03:25PM 37.1989 -103.8536 244° Southwest 418 481 36,000  Level Denver Center
03:26PM 37.1419 -104.0006 244° Southwest 416 479 36,000  Level Denver Center
03:27PM 37.0919 -104.1261 244° Southwest 417 480 36,000  Level Denver Center
03:28PM 37.0758 -104.1675 244° Southwest 416 479 36,000  Level Albuquerque Center
03:29PM 37.0186 -104.3133 244° Southwest 416 479 36,000  Level Albuquerque Center
03:30PM 36.9856 -104.3967 244° Southwest 415 478 36,000  Level Denver Center
03:31PM 36.9378 -104.5214 244° Southwest 415 478 36,000  Level Denver Center
03:32PM 36.8803 -104.6633 243° Southwest 411 473 36,000  Level Denver Center
03:32PM 36.8644 -104.7006 242° Southwest 409 471 36,000  Level Albuquerque Center
03:33PM 36.8161 -104.8222 244° Southwest 408 470 36,000  Level Albuquerque Center
03:34PM 36.7592 -104.9675 244° Southwest 414 476 36,000  Level Albuquerque Center
03:35PM 36.7092 -105.0897 243° Southwest 414 476 36,000  Level Albuquerque Center
03:36PM 36.6517 -105.2319 243° Southwest 411 473 36,000  Level Albuquerque Center
03:37PM 36.6014 -105.3544 243° Southwest 413 475 36,000  Level Albuquerque Center
03:38PM 36.5439 -105.4997 244° Southwest 418 481 36,000  Level Albuquerque Center
03:39PM 36.4861 -105.6311 241° Southwest 420 483 36,000  Level Albuquerque Center
03:40PM 36.4350 -105.7592 244° Southwest 415 478 36,000  Level Albuquerque Center
03:41PM 36.3831 -105.8883 243° Southwest 417 480 36,000  Level Albuquerque Center
03:42PM 36.3314 -106.0178 244° Southwest 418 481 36,000  Level Albuquerque Center
03:43PM 36.2769 -106.1458 242° Southwest 421 484 36,000  Level Albuquerque Center
03:44PM 36.2200 -106.2833 243° Southwest 416 479 36,000  Level Albuquerque Center
03:45PM 36.1603 -106.4244 242° Southwest 415 478 36,000 -540 Level Albuquerque Center
03:46PM 36.1069 -106.5531 243° Southwest 419 482 35,000 -1,020 Descending Albuquerque Center
03:47PM 36.0531 -106.6794 242° Southwest 418 481 34,000 -540 Descending Albuquerque Center
03:49PM 36.0011 -106.8042 243° Southwest 412 474 34,000  Level Albuquerque Center
03:50PM 35.9469 -106.9294 242° Southwest 414 476 34,000  Level Albuquerque Center
03:51PM 35.8850 -107.0747 242° Southwest 420 483 34,000  Level Albuquerque Center
03:52PM 35.8242 -107.2175 242° Southwest 421 484 34,000  Level Albuquerque Center
03:53PM 35.7714 -107.3394 242° Southwest 422 486 34,000  Level Albuquerque Center
03:54PM 35.7183 -107.4619 242° Southwest 421 484 34,000  Level Albuquerque Center
03:55PM 35.6567 -107.6047 242° Southwest 422 486 34,000  Level Albuquerque Center
03:56PM 35.6025 -107.7289 242° Southwest 427 491 34,000  Level Albuquerque Center
03:57PM 35.5394 -107.8717 242° Southwest 426 490 34,000  Level Albuquerque Center
03:58PM 35.4867 -107.9947 242° Southwest 425 489 34,000  Level Albuquerque Center
03:59PM 35.4231 -108.1383 242° Southwest 426 490 34,000  Level Albuquerque Center
04:00PM 35.3672 -108.2633 241° Southwest 431 496 34,000  Level Albuquerque Center
04:01PM 35.3025 -108.4103 242° Southwest 436 502 34,000  Level Albuquerque Center
04:02PM 35.2464 -108.5353 241° Southwest 436 502 34,000  Level Albuquerque Center
04:03PM 35.1900 -108.6633 242° Southwest 441 507 34,000  Level Albuquerque Center
04:04PM 35.1242 -108.8108 241° Southwest 441 507 34,000  Level Albuquerque Center
04:05PM 35.0669 -108.9369 241° Southwest 442 509 34,000  Level Albuquerque Center
04:06PM 34.9994 -109.0853 241° Southwest 443 510 34,000  Level Albuquerque Center
04:07PM 34.9458 -109.2133 243° Southwest 443 510 34,000  Level Albuquerque Center
04:08PM 34.8914 -109.3664 247° West 440 506 34,000  Level Albuquerque Center
04:09PM 34.8425 -109.4961 245° Southwest 440 506 34,000  Level Albuquerque Center
04:10PM 34.7861 -109.6464 245° Southwest 438 504 34,000  Level Albuquerque Center
04:11PM 34.7381 -109.7764 246° West 440 506 34,000  Level Albuquerque Center
04:12PM 34.6822 -109.9292 246° West 442 509 34,000  Level Albuquerque Center
04:13PM 34.6336 -110.0592 246° West 442 509 34,000  Level Albuquerque Center
04:14PM 34.5872 -110.1925 247° West 448 516 34,000  Level Albuquerque Center
04:15PM 34.5286 -110.3386 244° Southwest 435 501 34,000 -900 Level Albuquerque Center
04:16PM 34.4850 -110.4661 247° West 444 511 32,200 -1,860 Descending Albuquerque Center
04:17PM 34.4361 -110.5961 246° West 432 497 30,200 -2,160 Descending Albuquerque Center
04:19PM 34.3758 -110.7411 243° Southwest 405 466 27,800 -2,100 Descending Albuquerque Center
04:20PM 34.3111 -110.8517 235° Southwest 405 466 25,900 -1,920 Descending Albuquerque Center
04:21PM 34.2375 -110.9467 227° Southwest 392 451 23,900 -1,860 Descending Albuquerque Center
04:22PM 34.1650 -111.0397 227° Southwest 384 442 22,100 -1,800 Descending Albuquerque Center
04:23PM 34.0953 -111.1306 227° Southwest 373 429 20,200 -1,800 Descending Albuquerque Center
04:24PM 34.0283 -111.2172 227° Southwest 360 414 18,500 -1,800 Descending Albuquerque Center
04:25PM 33.9500 -111.3172 227° Southwest 342 394 16,600 -1,560 Descending Albuquerque Center
04:26PM 33.8864 -111.3978 226° Southwest 332 382 15,300 -1,260 Descending Albuquerque Center
04:27PM 33.8400 -111.4833 237° Southwest 308 354 14,000 -1,380 Descending Albuquerque Center
04:28PM 33.7969 -111.5669 238° Southwest 294 338 12,500 -1,500 Descending Albuquerque Center
04:29PM 33.7528 -111.6483 237° Southwest 289 333 11,000 -1,260 Descending Albuquerque Center
04:30PM 33.7097 -111.7283 237° Southwest 285 328 10,000 -540 Descending Albuquerque Center
04:31PM 33.6672 -111.8061 237° Southwest 279 321 10,000 -360 Level Albuquerque Center
04:32PM 33.6269 -111.8803 237° Southwest 265 305 9,300 -540 Descending Albuquerque Center
04:33PM 33.5828 -111.9622 237° Southwest 245 282 8,900 -780 Descending Albuquerque Center
04:34PM 33.5478 -112.0294 238° Southwest 237 273 7,700 -1,020 Descending Albuquerque Center
04:35PM 33.5250 -112.1014 249° West 235 270 6,800 -900 Descending Albuquerque Center
04:36PM 33.5250 -112.1739 270° West 219 252 5,900 -960 Descending Albuquerque Center
04:37PM 33.4925 -112.2097 223° Southwest 206 237 4,900 -1,140 Descending Albuquerque Center
04:38PM 33.4536 -112.1639 135° Southeast 199 229 3,600 -1,260 Descending Albuquerque Center
04:39PM 33.4406 -112.0933 102° East 184 212 2,300 -1,020 Descending Albuquerque Center
04:40PM 33.4411 -112.0411 89° East 162 186 1,500 -540 Descending Albuquerque Center
04:41PM 33.4397 -111.9931 92° East 155 178 1,200 -300 Descending Albuquerque Center